Vorticity
nan nan nan nan nan nan nan nan nan nan nan nan nan nan nan nan nan nan nan nan nan nan nan nan nan nan nan nan nan nan nan nan nan nan nan nan nan nan nan nan nan nan nan
nan 9 8 7 5 6 6 4 8 7 2 6 6 9 8 10 9 7 9 0 12 7 9 10 14 -2 11 11 2 12 10 6 9 8 5 7 10 6 5 6 10 6 nan
nan 5 8 6 6 7 6 5 7 6 6 6 6 5 8 10 11 7 8 9 6 11 4 9 5 11 6 9 8 12 11 7 6 8 8 6 9 5 5 6 9 7 nan
nan 5 7 8 9 7 7 8 6 6 5 4 7 9 9 10 6 7 11 12 6 5 6 13 4 14 7 7 5 8 10 8 6 7 5 9 13 9 7 8 11 13 nan
nan 8 12 8 8 7 7 7 7 7 6 8 6 7 8 9 5 14 11 6 8 7 9 7 6 8 6 11 8 9 7 9 5 16 16 11 -1 6 14 15 13 12 nan
nan 8 6 7 6 8 8 8 8 6 7 7 8 5 10 6 6 8 6 8 9 9 9 8 7 5 8 7 8 8 7 9 9 8 7 12 10 6 8 8 10 13 nan
nan 11 11 8 7 8 9 8 7 7 9 6 7 7 5 5 8 8 7 6 9 14 16 6 8 8 8 4 7 6 8 11 9 7 8 7 8 9 9 8 10 8 nan
nan 10 5 8 8 9 9 9 7 6 7 8 8 7 7 7 10 7 6 10 9 6 9 11 9 7 6 9 9 8 9 9 6 7 10 8 8 9 11 9 7 9 nan
nan 12 12 7 9 9 8 9 10 8 8 7 7 7 7 7 6 9 12 6 11 7 1 9 11 10 7 7 9 9 8 10 10 8 12 8 8 9 8 11 10 9 nan
nan 20 10 6 10 7 8 9 9 8 7 8 8 8 7 6 6 3 9 9 8 12 12 9 4 8 9 8 8 9 7 8 8 9 8 9 9 9 9 9 10 12 nan
nan 8 9 11 10 7 9 8 8 8 7 10 9 8 9 8 8 11 7 7 9 7 4 8 10 7 11 9 7 7 7 8 8 8 7 8 7 8 8 7 10 10 nan
nan 9 13 20 17 10 10 11 8 7 9 10 9 11 9 10 8 7 7 11 6 6 11 9 9 8 9 11 10 6 7 10 10 8 8 9 9 9 9 7 8 10 nan
nan 8 4 22 23 8 4 9 16 12 9 8 9 9 9 8 9 11 9 9 9 7 7 11 9 8 7 9 10 10 9 9 10 10 9 12 7 6 9 9 7 7 nan
nan 7 8 27 18 7 11 8 6 13 13 9 8 8 10 9 9 7 9 10 9 9 9 10 11 11 7 8 11 10 9 8 8 9 11 10 11 14 9 9 8 7 nan
nan 11 11 11 13 17 10 14 16 13 11 12 11 10 9 8 10 10 9 8 9 11 10 7 8 10 8 12 11 13 10 10 10 8 9 9 9 10 12 11 9 9 nan
nan 9 11 8 9 11 10 20 12 4 13 7 8 16 16 8 7 9 10 10 10 8 7 8 9 8 7 9 11 12 10 9 10 10 10 11 12 9 9 10 10 10 nan
nan 10 11 8 11 6 10 11 13 13 8 8 7 5 10 12 9 8 8 7 6 8 11 11 9 8 13 8 7 7 10 11 9 9 12 12 10 17 17 9 7 13 nan
nan 9 9 10 10 10 6 10 11 12 14 9 7 10 10 10 10 9 8 9 10 9 9 9 11 9 16 14 9 8 9 11 11 12 12 13 14 10 11 16 14 11 nan
nan 9 11 10 8 8 10 9 10 14 14 13 13 12 11 12 12 12 11 12 13 15 16 16 15 15 12 9 10 11 11 10 13 13 10 15 11 6 18 16 19 17 nan
nan 10 11 9 9 12 16 12 15 11 10 11 12 15 15 15 16 16 12 10 12 14 16 15 12 20 12 5 13 16 14 10 12 8 4 6 11 11 16 18 16 12 nan
nan 9 9 10 9 13 18 16 9 8 13 17 11 11 10 10 11 11 13 14 13 12 10 8 8 8 9 11 11 17 17 12 11 10 8 2 7 12 12 14 15 11 nan
nan 7 8 11 11 12 11 12 7 10 15 12 11 10 10 11 11 11 10 11 10 9 9 8 8 8 7 7 11 15 16 18 14 11 11 9 8 9 11 10 9 12 nan
nan 10 9 8 11 12 11 9 8 12 13 11 11 9 10 11 13 12 9 10 9 7 8 9 9 9 7 6 6 9 11 14 14 12 12 8 5 7 7 6 8 10 nan
nan 9 9 9 10 11 12 11 11 12 11 10 9 9 10 9 10 11 10 11 11 13 11 10 10 9 9 9 8 7 6 8 11 11 9 10 9 8 8 7 7 9 nan
nan 10 9 8 9 11 9 12 13 11 9 9 9 9 9 8 8 9 13 14 12 13 13 11 14 14 13 9 8 11 11 10 8 8 10 12 12 12 11 11 10 10 nan
nan nan nan nan nan nan nan nan nan nan nan nan nan nan nan nan nan nan nan nan nan nan nan nan nan nan nan nan nan nan nan nan nan nan nan nan nan nan nan nan nan nan nan
CAPE
338 287 440 243 666 823 958 2249 1929 1950 2400 2745 2406 2366 892 1644 2456 2986 2652 1977 1266 2223 1664 1344 181 2 268 376 3667 3399 3802 3094 2507 1241 1 505 117 0 0 133 430 1284 1541
103 452 278 157 557 1008 1097 2087 2756 3045 2802 2879 2601 1825 1371 2490 589 2719 2657 2237 1583 2148 2215 1661 0 0 581 1471 2938 3719 2380 329 669 0 0 94 159 0 0 81 70 521 1678
107 129 360 306 545 1042 1602 1709 1998 2833 2884 2341 1678 1362 1862 1998 2805 1975 2539 2182 1672 2133 1559 3055 1540 1523 7 0 2615 2019 104 0 154 548 0 19 27 0 0 10 41 0 1402
283 49 98 218 377 855 1178 2042 2462 2833 2623 3093 2112 2186 1517 1967 1975 950 1296 2199 2514 3008 2174 2529 2988 2595 573 373 2428 2576 1726 72 180 9 1 600 30 0 0 0 78 41 961
110 42 96 141 413 566 723 2017 2373 2848 2964 2838 2867 2536 2390 995 643 2471 3089 3270 3116 2646 2985 2502 2543 2870 3122 3101 3023 2806 2965 2938 2679 1928 552 599 1611 1349 451 1517 530 877 1043
148 116 122 401 380 679 547 1368 2464 2502 2682 2620 2757 2550 1791 426 223 1787 2251 2106 2207 2412 2900 2959 2401 3084 3168 2833 3096 3123 3035 3950 3613 3270 2786 2147 1436 1514 1333 986 760 440 1376
39 45 90 152 457 485 771 1581 2210 2297 2321 2217 2409 2115 2327 1697 2298 2279 2414 2567 2434 1806 2424 2981 2915 2941 3077 2960 2813 3007 2796 2347 2550 2966 2824 1934 1919 1617 1390 1258 792 569 633
84 38 120 318 526 714 934 1389 2167 2291 2152 2268 2443 2718 2301 1960 1992 2798 2548 2837 1003 1453 520 1544 2688 3191 2576 2758 2943 2767 2731 1980 1496 1112 2593 2565 1893 1181 1098 1236 1261 564 865
202 4 172 554 608 821 845 1629 2287 2328 2068 1770 2316 2238 2422 2566 1944 2868 2852 2458 669 1105 1 223 1506 2484 2577 2475 2164 2364 2861 1744 1733 2120 2563 2751 1919 1508 1373 59 1557 2041 1057
293 241 91 283 554 784 838 1046 2192 2437 2258 1784 1818 1748 1722 2036 2437 2650 1036 1986 1045 379 692 741 1758 2550 2481 2714 2786 2689 2234 1997 1033 1604 1622 2021 1860 1693 1136 519 938 1494 448
255 615 506 90 570 432 678 790 1624 2333 2235 1870 1584 1463 1494 1840 2313 2156 1657 2170 2092 338 1424 2299 2086 2791 2569 2586 2654 2805 2261 2000 1938 2283 1993 2052 2525 2405 1783 1737 1350 1078 1469
158 121 121 301 294 782 757 761 1163 1797 1808 1685 2077 1593 1708 1566 1611 2350 2505 3207 2718 2803 2930 2271 2318 2702 2612 2303 2773 2525 2237 2007 1787 1664 1668 2048 1483 2120 1652 2209 2253 2005 2227
9 35 97 207 1032 1152 2252 389 952 1324 1666 2013 1582 1542 1397 1690 1693 1808 2342 2717 2094 2217 2265 2103 2227 2309 2260 2421 2191 2385 2609 2249 2044 1778 1331 1671 1717 1529 1879 2113 2072 2104 1249
14 22 73 430 1331 1387 2832 847 695 1136 1732 1443 1586 1776 1815 1307 1386 2032 2517 2605 3046 2745 2573 2647 2443 2547 2313 2156 2277 2362 2380 2418 1959 1713 1630 1756 1536 2002 1903 1377 1724 1461 1839
397 552 239 30 870 1353 2068 2652 2202 527 2756 2372 2175 2465 2273 2486 2604 2704 2547 2532 2856 2619 2614 2736 2833 2611 1829 1337 1669 1829 2087 2122 2112 2091 1861 1516 1341 240 860 2219 1488 2199 1628
91 58 662 66 403 571 864 2245 2808 3043 3371 3053 2793 2758 2754 3083 3363 3256 2611 2860 2775 2946 2768 2446 2198 2140 1286 0 67 336 1940 1792 1912 1685 1965 2035 1317 340 29 57 46 212 1977
27 13 46 232 460 574 545 411 1125 1785 1941 2619 2126 1580 2045 2768 2873 2374 3065 2671 2550 2541 2661 2378 2258 2273 2410 0 0 0 554 1386 1677 1662 1462 1261 844 854 1534 169 0 11 0
6 15 33 134 258 373 218 295 220 454 1476 1555 1773 1346 1905 2013 2554 2270 1870 1858 1988 2393 1874 2145 1951 1684 1177 0 0 0 1 201 455 804 688 291 788 0 1 446 1042 937 0
15 39 71 83 45 52 137 269 303 554 762 985 1278 1558 1491 801 1155 1163 1588 1638 1638 1694 1681 1545 1322 1146 556 0 0 0 2 197 194 1 0 0 0 0 0 1 154 157 0
74 81 53 42 2 5 24 455 647 521 1016 1030 846 521 956 757 353 366 542 861 760 194 13 2 1 1 2 0 1 0 3 0 3 0 0 0 0 0 0 0 0 14 0
123 128 65 4 1 1 173 418 400 409 641 1103 996 781 813 301 199 132 74 46 3 3 2 1 1 2 1 1 0 1 0 2 2 0 0 0 0 0 0 0 0 0 0
166 44 56 34 3 0 0 2 4 9 93 194 108 117 113 95 73 49 4 5 3 2 2 2 3 4 2 0 0 0 0 0 1 1 2 1 0 0 0 0 0 0 0
106 83 55 57 24 8 0 2 3 4 7 5 5 3 6 1 10 31 9 6 4 2 2 1 2 1 1 1 0 0 0 0 1 0 0 0 0 0 0 0 0 0 0
122 77 64 54 64 36 6 3 3 2 4 4 3 1 1 1 0 0 0 3 0 10 2 0 0 0 2 2 1 2 4 0 0 0 0 0 0 0 0 0 0 0 0
192 106 56 37 30 66 7 5 6 4 3 3 3 2 1 0 0 0 0 0 1 0 0 0 0 0 0 0 0 0 1 0 0 0 0 0 0 0 0 0 0 0 0
172 231 69 41 9 3 4 10 5 0 2 2 2 0 0 0 0 0 0 0 0 0 0 0 0 0 0 0 0 0 0 0 0 1 0 1 0 1 0 0 0 0 0